[[{"header":{"parameterUnit":"m.s-1","parameterCategory":1,"la1":30.2991,"la2":30.254,"lo1":-89.0895,"lo2":-89.0444,"dy":0.0017,"dx":0.0017,"nx":28,"ny":28,"refTime":"2026-01-04T09:00:00:Z","depth":0,"parameterNumber":2,"parameterNumberName":"U-component_of_WINDS"},"data":[0,0,0,0,0,0,0,0,0,0,0,0,0,0,0,0,0,0,0,0,0,0,0,0,0,0,0,0,0,0,0,0,0,0,0,0,0,0,0,0,0,0,0,0,0,0,0,0,0,0,0,0,0,0,0,0,0,0,-1.7475,-1.7474,0,-1.743,-1.743,-1.7429,-1.7355,-1.7353,-1.7352,-1.7351,-1.7304,-1.7305,-1.7305,0,0,0,0,0,0,0,0,0,0,0,0,0,-1.7497,-1.7497,-1.7475,-1.7474,-1.7474,-1.743,-1.743,-1.7429,-1.7355,-1.7353,-1.7352,-1.735,-1.7304,-1.7305,-1.7305,0,0,0,0,0,0,0,0,0,0,0,0,0,-1.7474,-1.7497,-1.7475,-1.7432,-1.7427,-1.743,-1.743,-1.7429,-1.7355,-1.7353,-1.7351,-1.7349,-1.7304,-1.7305,-1.7305,-1.7346,0,0,-1.7305,-1.7305,0,0,0,0,0,0,0,0,-1.7475,-1.7473,-1.7439,-1.7435,-1.743,-1.7396,-1.742,-1.7401,-1.7356,-1.7383,-1.7351,-1.7348,-1.7337,-1.7334,-1.733,-1.7344,-1.7342,-1.7305,-1.7305,-1.7305,-1.7305,0,0,0,0,0,0,0,-1.7477,-1.7474,-1.7457,-1.7438,-1.7433,-1.7415,-1.7409,-1.7416,-1.7372,-1.738,-1.7375,-1.737,-1.7334,-1.733,-1.7328,-1.7341,-1.7305,-1.7305,-1.7305,-1.7305,-1.7389,-1.7391,0,0,0,0,0,0,-1.7485,-1.7476,-1.7459,-1.7456,-1.7448,-1.7416,-1.741,-1.7409,-1.7371,-1.7364,-1.7372,-1.7367,-1.7331,-1.7328,-1.7326,-1.7374,-1.7305,-1.7305,-1.7305,-1.7387,-1.7389,-1.7392,0,0,0,0,0,0,-1.7485,-1.7484,-1.746,-1.7465,-1.746,-1.7418,-1.7418,-1.7409,-1.7405,-1.7365,-1.7357,-1.7377,-1.7329,-1.7326,-1.7342,-1.7371,-1.7305,-1.7305,-1.7384,-1.7388,-1.7391,-1.7468,0,0,0,0,0,0,-1.7486,-1.7485,-1.75,-1.7465,-1.746,-1.7477,-1.7419,-1.741,-1.7406,-1.7399,-1.7367,-1.736,-1.7327,-1.7343,-1.7342,-1.737,-1.7305,-1.7381,-1.7386,-1.739,-1.7463,-1.7474,-1.7483,0,0,0,0,0,-1.7487,-1.7523,-1.7501,-1.7499,-1.7478,-1.7479,-1.7476,-1.7437,-1.7408,-1.7423,-1.7398,-1.7361,-1.7368,-1.7345,-1.7344,-1.7372,-1.7379,-1.7384,-1.7389,-1.7459,-1.7472,-1.7483,0,0,0,0,0,0,-1.7561,-1.7518,-1.7493,-1.7518,-1.7503,-1.7466,-1.7484,-1.7452,-1.7445,-1.7439,-1.7391,-1.7385,-1.7407,-1.7391,-1.7366,-1.7411,-1.7368,-1.7373,-1.7421,-1.7433,-1.7443,-1.7447,-1.7305,0,0,0,0,0,-1.7581,-1.7585,-1.7546,-1.7572,-1.7566,-1.7527,-1.7525,-1.7497,-1.748,-1.7473,-1.7448,-1.7433,-1.7431,-1.7431,-1.7427,-1.746,-1.7453,-1.7479,-1.7489,-1.7498,-1.7503,-1.7521,-1.7532,-1.7408,-1.7408,-1.7408,0,0,-1.762,-1.7597,-1.7602,-1.7587,-1.7571,-1.7577,-1.7522,-1.753,-1.7534,-1.7474,-1.7488,-1.747,-1.7449,-1.7474,-1.7484,-1.7461,-1.7536,-1.7504,-1.7511,-1.7512,-1.7527,-1.7539,-1.7549,-1.7411,-1.7411,-1.741,0,0,-1.7696,-1.7678,-1.7699,-1.7685,-1.7663,-1.7637,-1.7642,-1.7611,-1.7596,-1.761,-1.7566,-1.757,-1.7568,-1.7555,-1.7549,-1.7622,-1.7588,-1.7622,-1.7675,-1.7692,-1.7702,-1.7711,-1.7738,-1.7748,-1.7627,-1.7627,-1.7627,0,-1.7748,-1.7755,-1.7713,-1.7724,-1.7719,-1.7666,-1.7687,-1.7676,-1.7654,-1.7652,-1.7627,-1.7625,-1.7607,-1.7629,-1.7647,-1.7643,-1.7648,-1.7625,-1.7704,-1.7712,-1.7719,-1.7745,-1.7755,-1.7631,-1.7631,-1.763,-1.763,0,-1.7821,-1.7826,-1.7845,-1.7826,-1.7823,-1.7839,-1.7801,-1.7803,-1.7775,-1.7752,-1.7767,-1.7744,-1.7736,-1.7739,-1.7712,-1.7758,-1.7745,-1.7713,-1.7668,-1.7736,-1.776,-1.7769,-1.7637,-1.7636,-1.7635,-1.7634,0,0,-1.7941,-1.7899,-1.7907,-1.7899,-1.7871,-1.7875,-1.7889,-1.7881,-1.7884,-1.7871,-1.7883,-1.7883,-1.7854,-1.7847,-1.7818,-1.7834,-1.7895,-1.78,-1.7798,-1.7819,-1.7945,-1.797,-1.7982,-1.7872,-1.7874,-1.7875,-1.7948,0,-1.8011,-1.8033,-1.7997,-1.8027,-1.8032,-1.7983,-1.7995,-1.798,-1.7959,-1.7961,-1.7937,-1.7939,-1.79,-1.7895,-1.7908,-1.7884,-1.7919,-1.7878,-1.7883,-1.7884,-1.789,-1.7994,-1.802,-1.809,-1.7956,-1.7958,-1.7959,0,-1.8096,-1.8088,-1.8119,-1.8091,-1.8092,-1.8104,-1.8095,-1.8097,-1.8079,-1.8063,-1.8056,-1.8022,-1.8035,-1.7992,-1.801,-1.7983,-1.7983,-1.7971,-1.7973,-1.7972,-1.7926,-1.7997,-1.8111,-1.8122,-1.7972,-1.7971,-1.797,0,-1.8182,-1.8179,-1.8198,-1.8192,-1.8159,-1.8169,-1.8156,-1.8136,-1.8134,-1.8126,-1.8125,-1.8119,-1.8115,-1.8112,-1.8077,-1.8049,-1.81,-1.8054,-1.8087,-1.8088,-1.81,-1.81,-1.8216,-1.8099,-1.8099,-1.8099,-1.8099,0,-1.8265,-1.8286,-1.8236,-1.8248,-1.8271,-1.8229,-1.8253,-1.8235,-1.8218,-1.8226,-1.8182,-1.8191,-1.8145,-1.8148,-1.8122,-1.8141,-1.814,-1.8127,-1.812,-1.8132,-1.8134,-1.8131,-1.8126,-1.8102,-1.8101,-1.81,-1.81,0,-1.8365,-1.8332,-1.8349,-1.8318,-1.831,-1.8329,-1.8302,-1.8311,-1.8288,-1.8299,-1.8299,-1.8262,-1.8264,-1.823,-1.8225,-1.8207,-1.8239,-1.8223,-1.8245,-1.8241,-1.8277,-1.8274,-1.8396,-1.841,-1.8283,-1.8285,-1.8286,0,-1.842,-1.8436,-1.8406,-1.8408,-1.8397,-1.8401,-1.84,-1.836,-1.836,-1.8342,-1.8354,-1.8353,-1.835,-1.8356,-1.8329,-1.8326,-1.831,-1.8353,-1.8309,-1.832,-1.8312,-1.8312,-1.8314,-1.8362,-1.8364,-1.8365,-1.8366,0,-1.8522,-1.8506,-1.8505,-1.8499,-1.8498,-1.8491,-1.8482,-1.8486,-1.8443,-1.8445,-1.8447,-1.8445,-1.8441,-1.844,-1.8432,-1.8419,-1.8386,-1.838,-1.8388,-1.84,-1.8413,-1.8408,-1.8271,-1.8377,-1.8376,-1.8375,-1.8375,-1.8374,-1.8602,-1.8614,-1.8596,-1.8596,-1.8585,-1.8578,-1.8586,-1.8564,-1.8565,-1.8559,-1.8535,-1.8542,-1.8525,-1.8511,-1.8501,-1.8506,-1.8485,-1.8496,-1.8499,-1.8502,-1.851,-1.8412,-1.8504,-1.8504,-1.8503,-1.8503,-1.8503,0,-1.8703,-1.8689,-1.869,-1.8679,-1.868,-1.8648,-1.8637,-1.864,-1.8646,-1.8633,-1.8632,-1.8635,-1.8635,-1.8609,-1.8606,-1.8615,-1.86,-1.8616,-1.8615,-1.8613,-1.8528,-1.8522,-1.8628,-1.8628,-1.8628,-1.8628,-1.8628,-1.8628,-1.8756,-1.8775,-1.8756,-1.877,-1.8755,-1.8762,-1.8758,-1.8751,-1.8741,-1.8747,-1.8747,-1.873,-1.8712,-1.8708,-1.8707,-1.8699,-1.8701,-1.8722,-1.871,-1.8631,-1.8619,-1.8607,-1.8601,-1.8722,-1.8722,-1.8794,-1.8795,-1.8795]},{"header":{"parameterUnit":"m.s-1","parameterCategory":1,"la1":30.2991,"la2":30.254,"lo1":-89.0895,"lo2":-89.0444,"dy":0.0017,"dx":0.0017,"nx":28,"ny":28,"refTime":"2026-01-04T09:00:00:Z","depth":0,"parameterNumber":3,"parameterNumberName":"V-component_of_WINDS"},"data":[0,0,0,0,0,0,0,0,0,0,0,0,0,0,0,0,0,0,0,0,0,0,0,0,0,0,0,0,0,0,0,0,0,0,0,0,0,0,0,0,0,0,0,0,0,0,0,0,0,0,0,0,0,0,0,0,0,0,0.1872,0.1872,0,0.1848,0.1848,0.1848,0.1847,0.1847,0.1847,0.1848,0.1818,0.1817,0.1816,0,0,0,0,0,0,0,0,0,0,0,0,0,0.1912,0.1912,0.1872,0.1872,0.1872,0.1848,0.1848,0.1848,0.1847,0.1847,0.1847,0.1848,0.1819,0.1817,0.1816,0,0,0,0,0,0,0,0,0,0,0,0,0,0.1892,0.1911,0.1872,0.1869,0.1868,0.1848,0.1848,0.1848,0.1847,0.1847,0.1848,0.1848,0.1819,0.1818,0.1816,0.1797,0,0,0.1811,0.181,0,0,0,0,0,0,0,0,0.1893,0.1891,0.1869,0.1869,0.1868,0.1851,0.1851,0.183,0.1847,0.1855,0.1848,0.1848,0.1829,0.1826,0.1821,0.1796,0.1795,0.1811,0.181,0.1809,0.1809,0,0,0,0,0,0,0,0.1895,0.1892,0.1863,0.1869,0.1868,0.1866,0.1864,0.1847,0.1839,0.1854,0.1854,0.1851,0.1828,0.1822,0.182,0.1794,0.1811,0.181,0.1809,0.1808,0.1751,0.175,0,0,0,0,0,0,0.1898,0.1893,0.1863,0.1862,0.1882,0.1865,0.1863,0.1856,0.1839,0.1837,0.1851,0.1851,0.1825,0.1822,0.1819,0.1795,0.1809,0.1808,0.1807,0.1752,0.1751,0.175,0,0,0,0,0,0,0.1898,0.1895,0.1864,0.1877,0.1873,0.1864,0.1857,0.1855,0.1849,0.1837,0.1835,0.1847,0.1825,0.1821,0.1803,0.1794,0.1807,0.1806,0.1752,0.1751,0.1751,0.1748,0,0,0,0,0,0,0.19,0.1895,0.1889,0.1877,0.1873,0.185,0.1856,0.1854,0.1847,0.1847,0.1833,0.183,0.1825,0.1805,0.1801,0.1792,0.1804,0.1753,0.1752,0.1751,0.1749,0.1747,0.1746,0,0,0,0,0,0.1901,0.1889,0.1889,0.1886,0.1865,0.185,0.1847,0.1842,0.1846,0.184,0.1831,0.1831,0.1796,0.1803,0.1799,0.1789,0.1753,0.1752,0.1751,0.175,0.1748,0.1746,0,0,0,0,0,0,0.1899,0.1887,0.1887,0.1871,0.1862,0.185,0.1841,0.184,0.1828,0.1829,0.1822,0.1819,0.18,0.1793,0.1801,0.1769,0.1775,0.1773,0.1775,0.1773,0.1772,0.1774,0.1803,0,0,0,0,0,0.1897,0.1887,0.1876,0.1863,0.1858,0.185,0.1843,0.1841,0.183,0.1825,0.1816,0.1804,0.179,0.1781,0.1768,0.1747,0.1743,0.1739,0.1737,0.1736,0.1734,0.1722,0.1719,0.1746,0.1746,0.1746,0,0,0.1892,0.1884,0.1878,0.1862,0.1855,0.1843,0.1847,0.1834,0.1825,0.1823,0.1806,0.1798,0.1784,0.1764,0.1755,0.1757,0.1726,0.1734,0.1734,0.1732,0.172,0.1718,0.1715,0.1745,0.1745,0.1746,0,0,0.1877,0.1871,0.1859,0.1851,0.184,0.1834,0.1831,0.1819,0.1815,0.1797,0.1795,0.1782,0.1759,0.1749,0.1741,0.1721,0.1719,0.1716,0.1709,0.1697,0.1694,0.1692,0.1685,0.1682,0.1714,0.1714,0.1714,0,0.1872,0.1856,0.1852,0.184,0.1832,0.1831,0.1818,0.181,0.1794,0.1788,0.1791,0.1761,0.1751,0.1729,0.1724,0.1718,0.1713,0.1718,0.1695,0.1693,0.1691,0.1684,0.1681,0.1714,0.1714,0.1714,0.1714,0,0.185,0.1839,0.183,0.1816,0.1808,0.1795,0.1787,0.1779,0.1776,0.177,0.1751,0.1739,0.1723,0.1718,0.1714,0.1694,0.1696,0.1697,0.1702,0.1689,0.1681,0.1678,0.1714,0.1714,0.1714,0.1714,0,0,0.1834,0.1818,0.1815,0.1809,0.1795,0.1785,0.1771,0.1757,0.1749,0.1738,0.1725,0.1705,0.1706,0.1696,0.1692,0.1681,0.1665,0.1683,0.1683,0.168,0.1641,0.164,0.1637,0.1664,0.1663,0.1663,0.1642,0,0.1818,0.1796,0.1791,0.1771,0.176,0.1757,0.1745,0.1734,0.1728,0.1715,0.1707,0.1693,0.1695,0.169,0.1679,0.1669,0.1657,0.1671,0.165,0.165,0.1655,0.1633,0.1633,0.1614,0.1639,0.1638,0.1638,0,0.1797,0.1786,0.1765,0.1753,0.1748,0.1737,0.1723,0.1712,0.1699,0.1694,0.1684,0.168,0.1663,0.1669,0.1645,0.1655,0.1645,0.1639,0.1638,0.1636,0.1643,0.163,0.1607,0.1605,0.1634,0.1634,0.1634,0,0.1787,0.1767,0.1752,0.1746,0.1731,0.1724,0.1717,0.1705,0.1696,0.1682,0.1676,0.1661,0.1652,0.1639,0.163,0.1636,0.1607,0.1612,0.1601,0.1601,0.1596,0.1596,0.1571,0.159,0.159,0.159,0.159,0,0.177,0.1757,0.1748,0.1738,0.1723,0.1717,0.1702,0.1694,0.1683,0.1671,0.1667,0.1655,0.1644,0.163,0.1623,0.1603,0.1599,0.1594,0.1592,0.1595,0.1595,0.1589,0.159,0.1589,0.1589,0.1589,0.159,0,0.1757,0.175,0.1734,0.1721,0.1717,0.1706,0.1695,0.1684,0.1677,0.1661,0.1657,0.1645,0.1629,0.1619,0.1597,0.1592,0.157,0.1569,0.1575,0.1574,0.1564,0.1565,0.1534,0.1529,0.1551,0.1551,0.1551,0,0.1747,0.1737,0.1723,0.1716,0.1709,0.1696,0.1688,0.168,0.1671,0.1655,0.1646,0.1629,0.1616,0.1588,0.1576,0.1559,0.1557,0.1547,0.1555,0.1557,0.1557,0.1557,0.1556,0.1546,0.1546,0.1546,0.1546,0,0.1729,0.1726,0.1715,0.1701,0.1691,0.168,0.1669,0.1662,0.1653,0.1642,0.1626,0.1615,0.1593,0.1576,0.1558,0.1548,0.1545,0.1543,0.154,0.1542,0.1547,0.1544,0.1572,0.1544,0.1545,0.1545,0.1545,0.1545,0.1717,0.1708,0.1697,0.1684,0.1675,0.1664,0.1654,0.1645,0.1632,0.1615,0.1611,0.1593,0.1578,0.1553,0.1543,0.1528,0.1529,0.1524,0.1523,0.1522,0.1522,0.1549,0.1524,0.1524,0.1524,0.1524,0.1524,0,0.1699,0.1691,0.1679,0.1664,0.1654,0.1653,0.164,0.163,0.1616,0.1603,0.159,0.157,0.1553,0.1539,0.1521,0.1511,0.1509,0.1506,0.1507,0.1505,0.1522,0.1527,0.1508,0.1508,0.1508,0.1508,0.1508,0.1508,0.1688,0.1673,0.1668,0.1647,0.1639,0.1623,0.1616,0.1605,0.1595,0.1574,0.156,0.1552,0.1538,0.1519,0.1502,0.1499,0.1492,0.149,0.1485,0.1502,0.1504,0.1505,0.151,0.1488,0.1488,0.1469,0.1469,0.1469]}]]